sat.trackr.live / text

‹ back to catalog

STARLINK-30244

NORAD 57614 · 2023-119N

PAYLOAD ACTIVE UNKNOWN

§ Identity

Operator
Country
US
Launch date
2023-08-11
Launch site
AFETR
Launch vehicle
Mass (kg)
RCS (m²)

Purposes: comms

External: N2YO · Heavens-Above · Gunter

§ Orbital elements

Epoch: 2026-05-24T23:14:11.495040Z

Period
94.27 min
Inclination
43.0035°
Eccentricity
0.0001449
Mean motion
15.27571057 rev/d
Perigee alt
482.1 km
Apogee alt
484.1 km
Semi-major
6,861.2 km
B*
3.1527e-5
RAAN
10.6681°
Arg perigee
259.9356°
Mean anomaly
100.1332°
Rev number
15,475

§ Raw data

STARLINK-302441 57614U 23119N   26144.96818860  .00000605  00000+0  31527-4 0  99942 57614  43.0035  10.6681 0001449 259.9356 100.1332 15.27571057154751

JSON: /api/v1/satellites/57614 · /tle

For live sub-satellite position, see the globe view (requires WebGL).

§ Visibility from observer

Set your observer location to see the next 7 days of passes ≥ 10°. The values pass through the URL so the page stays shareable.

No JS? Fill the form by hand. The geolocation button needs JavaScript.